sat.trackr.live / text

‹ back to catalog

STARLINK-4319

NORAD 53084 · 2022-077AT

PAYLOAD ACTIVE UNKNOWN

§ Identity

Operator
Country
US
Launch date
2022-07-11
Launch site
AFWTR
Launch vehicle
Mass (kg)
RCS (m²)

Purposes: comms

External: N2YO · Heavens-Above · Gunter

§ Orbital elements

Epoch: 2026-09-18T22:02:35.251584Z

Period
93.91 min
Inclination
97.2857°
Eccentricity
0.0001588
Mean motion
15.33436554 rev/d
Perigee alt
464.5 km
Apogee alt
466.7 km
Semi-major
6,843.7 km
B*
2.7070e-5
RAAN
77.6722°
Arg perigee
92.6582°
Mean anomaly
267.4843°
Rev number
23,011

§ Raw data

STARLINK-43191 53084U 22077AT  26261.91846356  .00000799  00000+0  27070-4 0  99912 53084  97.2857  77.6722 0001588  92.6582 267.4843 15.33436554230115

JSON: /api/v1/satellites/53084 · /tle

For live sub-satellite position, see the globe view (requires WebGL).

§ Visibility from observer

Set your observer location to see the next 7 days of passes ≥ 10°. The values pass through the URL so the page stays shareable.

No JS? Fill the form by hand. The geolocation button needs JavaScript.